This is the latest recevied weather packets stored in our database for station/object OK2ILA-1. If no packets are shown the sender has not sent any weather packets the latest 10 day(s).
| Time | Temp. | Humidity | Pressure | Rain* | Wind** | Luminosity | Snow |
|---|---|---|---|---|---|---|---|
| 1788365529 | 23.89° C | 100% | 1020.8 hPa | 0 mm | - | - | - |
| 1788361205 | 25° C | 100% | 1020.9 hPa | 0 mm | - | - | - |
| 1788359763 | 25.56° C | 100% | 1021 hPa | 0 mm | - | - | - |
| 1788359043 | 25° C | 100% | 1021.1 hPa | 0 mm | - | - | - |
| 1788358322 | 25.56° C | 100% | 1021.1 hPa | 0 mm | - | - | - |
| 1788356881 | 25.56° C | 100% | 1021.3 hPa | 0 mm | - | - | - |
| 1788356160 | 25.56° C | 100% | 1021.4 hPa | 0 mm | - | - | - |
| 1788355439 | 25.56° C | 100% | 1021.5 hPa | 0 mm | - | - | - |
| 1788354719 | 25° C | 100% | 1021.5 hPa | 0 mm | - | - | - |
| 1788353998 | 24.44° C | 100% | 1021.6 hPa | 0 mm | - | - | - |
| 1788352556 | 24.44° C | 100% | 1021.7 hPa | 0 mm | - | - | - |
| 1788351836 | 24.44° C | 100% | 1021.7 hPa | 0 mm | - | - | - |
| 1788351115 | 23.89° C | 100% | 1021.9 hPa | 0 mm | - | - | - |
| 1788350394 | 23.89° C | 100% | 1022 hPa | 0 mm | - | - | - |
| 1788348953 | 23.89° C | 100% | 1022 hPa | 0 mm | - | - | - |
| 1788348232 | 23.89° C | 100% | 1022.1 hPa | 0 mm | - | - | - |
| 1788347512 | 25° C | 100% | 1022 hPa | 0 mm | - | - | - |
| 1788346791 | 25° C | 100% | 1022.2 hPa | 0 mm | - | - | - |
| 1788345350 | 25° C | 100% | 1022.3 hPa | 0 mm | - | - | - |
| 1788344629 | 25° C | 100% | 1022.3 hPa | 0 mm | - | - | - |
| 1788343908 | 24.44° C | 100% | 1022.5 hPa | 0 mm | - | - | - |
| 1788343188 | 23.33° C | 100% | 1022.6 hPa | 0 mm | - | - | - |
| 1788341746 | 23.33° C | 100% | 1022.8 hPa | 0 mm | - | - | - |
| 1788341026 | 22.78° C | 100% | 1022.7 hPa | 0 mm | - | - | - |
| 1788340305 | 22.78° C | 100% | 1022.9 hPa | 0 mm | - | - | - |
* Rain latest hour (hover to see other rain measurements)
** Current wind speed in m/s (hover to see current wind gust speed)